FW1757 Weather Reports


time (UTC)temp
C
wind
direction
speed
KPH
gust
KPH
rain 1hr
cm
rain 24hr
cm
rain mn
cm
humidity
%
barometer
mb
20260507110535 12 280 0.0 0.0 0.00 0.00 0.00 65 1015.8
20260507110035 12 262 0.0 0.0 0.00 0.00 0.00 65 1015.9
20260507105534 12 240 0.0 0.0 0.00 0.00 0.00 65 1015.8
20260507105036 12 281 0.0 0.0 0.00 0.00 0.00 65 1015.7
20260507104533 12 300 0.0 0.0 0.00 0.00 0.00 65 1015.7
20260507104033 12 213 0.0 0.0 0.00 0.00 0.00 65 1015.6
20260507103535 12 273 0.0 0.0 0.00 0.00 0.00 65 1015.6
20260507103034 12 245 0.0 0.0 0.00 0.00 0.00 65 1015.7
20260507102532 12 257 0.0 0.0 0.00 0.00 0.00 65 1015.5
20260507102031 12 232 0.0 0.0 0.00 0.00 0.00 64 1015.4
20260507101532 12 298 0.0 0.0 0.00 0.00 0.00 64 1015.6
20260507101030 12 267 0.0 0.0 0.00 0.00 0.00 64 1015.6
20260507100530 12 302 0.0 0.0 0.00 0.00 0.00 64 1015.7
20260507100035 13 267 0.0 0.0 0.00 0.00 0.00 64 1015.6
20260507095529 13 287 0.0 0.0 0.00 0.00 0.00 64 1015.5
20260507095029 13 314 0.0 0.0 0.00 0.00 0.00 64 1015.5
20260507094527 13 286 0.0 0.0 0.00 0.00 0.00 65 1015.6
20260507094027 13 322 0.0 0.0 0.00 0.00 0.00 65 1015.5
20260507093626 13 279 0.0 0.0 0.00 0.00 0.00 65 1015.6
20260507093025 13 239 0.0 0.0 0.00 0.00 0.00 65 1015.6
20260507092525 13 263 0.0 0.0 0.00 0.00 0.00 65 1015.7
20260507092024 13 298 0.0 0.0 0.00 0.00 0.00 65 1015.6
20260507091524 13 263 0.0 0.0 0.00 0.00 0.00 65 1015.7
20260507091024 13 263 0.0 0.0 0.00 0.00 0.00 66 1015.6
20260507090524 13 302 0.0 0.0 0.00 0.00 0.00 65 1015.7
20260507090023 13 260 0.0 0.0 0.00 0.00 0.00 66 1015.8
20260507085523 13 259 0.0 0.0 0.00 0.00 0.00 65 1015.8
20260507085023 13 270 0.0 0.0 0.00 0.00 0.00 65 1015.8
20260507084524 13 281 0.0 0.0 0.00 0.00 0.00 65 1015.9
20260507084022 13 257 0.0 0.0 0.00 0.00 0.00 65 1015.9
20260507083522 13 306 0.0 0.0 0.00 0.00 0.00 65 1015.8
20260507083023 13 313 0.0 0.0 0.00 0.00 0.00 65 1015.8
20260507082521 13 281 0.0 0.0 0.00 0.00 0.00 65 1015.7
20260507082019 14 265 0.0 0.0 0.00 0.00 0.00 65 1015.6
20260507081534 14 279 0.0 0.0 0.00 0.00 0.00 65 1015.5
20260507081019 14 300 0.0 0.0 0.00 0.00 0.00 66 1015.5
20260507080520 14 313 0.0 0.0 0.00 0.00 0.00 66 1015.3
20260507080016 14 266 0.0 0.0 0.00 0.00 0.00 66 1015.3
20260507075519 14 300 0.0 0.0 0.00 0.00 0.00 66 1015.3
20260507075015 14 228 0.0 0.0 0.00 0.00 0.00 66 1015.1
20260507074524 14 269 0.0 0.0 0.00 0.00 0.00 66 1015.2
20260507074014 14 309 0.0 0.0 0.00 0.00 0.00 66 1015.1
20260507073516 15 281 0.0 0.0 0.00 0.00 0.00 66 1015.0
20260507073013 15 296 0.0 0.0 0.00 0.00 0.00 66 1014.8
20260507072512 15 270 0.0 0.0 0.00 0.00 0.00 66 1014.9
20260507072012 15 228 0.0 0.0 0.00 0.00 0.00 66 1014.8
20260507071511 15 255 0.0 0.0 0.00 0.00 0.00 66 1014.9
20260507071012 15 292 0.0 0.0 0.00 0.00 0.00 66 1014.8
20260507070510 15 290 0.0 0.0 0.00 0.00 0.00 66 1015.1
20260507070017 15 286 0.0 0.0 0.00 0.00 0.00 66 1015.0
20260507065510 15 278 0.0 0.0 0.00 0.00 0.00 66 1015.2
20260507065009 15 260 0.0 0.0 0.00 0.00 0.00 66 1015.1
20260507064508 15 288 0.0 0.0 0.00 0.00 0.00 66 1015.1
20260507064008 15 330 0.0 0.0 0.00 0.00 0.00 66 1015.2
20260507063509 15 246 0.0 0.0 0.00 0.00 0.00 66 1015.3
20260507063014 15 289 0.0 0.0 0.00 0.00 0.00 66 1015.3
20260507062507 15 292 0.0 0.0 0.00 0.00 0.00 66 1015.2
20260507062007 15 290 0.0 0.0 0.00 0.00 0.00 66 1015.3
20260507061507 15 287 0.0 0.0 0.00 0.00 0.00 67 1015.3
20260507061006 15 268 0.0 0.0 0.00 0.00 0.00 67 1015.3
20260507060508 15 316 0.0 0.0 0.00 0.00 0.00 67 1015.3
20260507060006 16 319 0.0 0.0 0.00 0.00 0.00 67 1015.3
20260507055506 16 292 0.0 0.0 0.00 0.00 0.00 67 1015.3
20260507055005 16 302 0.0 0.0 0.00 0.00 0.00 67 1015.3
20260507054505 16 294 0.0 0.0 0.00 0.00 0.00 67 1015.2
20260507054008 16 269 0.0 0.0 0.00 0.00 0.00 67 1015.3
20260507053507 16 310 0.0 0.0 0.00 0.00 0.00 67 1015.2
20260507053005 16 250 0.0 0.0 0.00 0.00 0.00 67 1015.3
20260507052504 16 298 0.0 0.0 0.00 0.00 0.00 67 1015.0
20260507052006 16 273 0.0 0.0 0.00 0.00 0.00 67 1015.1
20260507051504 16 339 0.0 0.0 0.00 0.00 0.00 67 1015.0
20260507051008 16 294 0.0 0.0 0.00 0.00 0.00 67 1015.0
20260507050504 16 257 0.0 0.0 0.00 0.00 0.00 67 1015.0
20260507050013 16 97 0.0 0.0 0.00 0.00 0.00 67 1014.9
20260507045505 16 240 0.0 0.0 0.00 0.00 0.00 67 1014.9
20260507045004 16 351 0.0 0.0 0.00 0.00 0.00 67 1015.0
20260507044503 16 252 0.0 0.0 0.00 0.00 0.00 67 1015.0
20260507044003 16 289 0.0 0.0 0.00 0.00 0.00 67 1015.0
20260507043502 16 288 0.0 0.0 0.00 0.00 0.00 67 1015.2
20260507043003 16 277 0.0 0.0 0.00 0.00 0.00 67 1015.2
20260507042502 16 294 0.0 0.0 0.00 0.00 0.00 67 1015.1
20260507042002 16 291 0.0 0.0 0.00 0.00 0.00 67 1015.1
20260507041502 16 269 0.0 0.0 0.00 0.00 0.00 67 1015.1
20260507041002 16 286 0.0 0.0 0.00 0.00 0.00 67 1015.0
20260507040502 16 301 0.0 0.0 0.00 0.00 0.00 67 1015.0
20260507040005 16 294 0.0 0.0 0.00 0.00 0.00 66 1014.7
20260507035502 16 328 0.0 0.0 0.00 0.00 0.00 66 1014.7
20260507035001 16 284 0.0 0.0 0.00 0.00 0.00 66 1014.9
20260507034500 16 275 0.0 0.0 0.00 0.00 0.00 66 1014.9
20260507034001 17 290 0.0 0.0 0.00 0.00 0.00 66 1015.0
20260507033600 17 284 0.0 0.0 0.00 0.00 0.00 65 1015.1
20260507033106 17 292 0.0 0.0 0.00 0.00 0.00 64 1015.0
20260507032602 17 288 0.0 0.0 0.00 0.00 0.00 63 1015.2
20260507032100 17 282 0.0 0.0 0.00 0.00 0.00 61 1015.1
20260507031609 17 265 0.0 0.0 0.00 0.00 0.00 60 1015.1
20260507031100 17 262 0.0 0.0 0.00 0.00 0.00 59 1015.2
20260507030559 18 275 0.0 0.0 0.00 0.00 0.00 59 1015.2
20260507030101 18 256 0.0 0.0 0.00 0.00 0.00 58 1015.1
20260507025602 18 316 0.0 0.0 0.00 0.00 0.00 57 1015.1
20260507025059 18 296 0.0 0.0 0.00 0.00 0.00 56 1015.2
20260507024559 18 275 0.0 0.0 0.00 0.00 0.00 56 1015.1
20260507024059 18 309 0.0 0.0 0.00 0.00 0.00 56 1015.2
20260507023558 18 296 0.0 0.0 0.00 0.00 0.00 55 1015.3
20260507023106 18 258 0.0 0.0 0.00 0.00 0.00 56 1015.4
20260507022558 18 294 0.0 0.0 0.00 0.00 0.00 56 1015.3
20260507022058 18 279 0.0 0.0 0.00 0.00 0.00 55 1015.3
20260507021601 18 298 0.0 0.0 0.00 0.00 0.00 56 1015.2
20260507021058 18 279 0.0 0.0 0.00 0.00 0.00 56 1015.3
20260507020557 19 264 0.0 0.0 0.00 0.00 0.00 56 1015.0
20260507020100 19 296 0.0 0.0 0.00 0.00 0.00 55 1015.3
20260507015557 18 273 0.0 0.0 0.00 0.00 0.00 57 1015.2
20260507015056 18 301 0.0 0.0 0.00 0.00 0.00 56 1015.2
20260507014604 18 302 0.0 0.0 0.00 0.00 0.00 56 1015.1
20260507014057 18 261 0.0 0.0 0.00 0.00 0.00 56 1014.9
20260507013556 18 272 0.0 0.0 0.00 0.00 0.00 56 1015.0
20260507013055 18 310 0.0 0.0 0.00 0.00 0.00 56 1014.9
20260507012555 18 300 0.0 0.0 0.00 0.00 0.00 56 1014.9
20260507012100 18 290 0.0 0.0 0.00 0.00 0.00 56 1015.0
20260507011555 18 279 0.0 0.0 0.00 0.00 0.00 57 1015.0
20260507011059 18 275 0.0 0.0 0.00 0.00 0.00 56 1014.8
20260507010555 18 237 0.0 0.0 0.00 0.00 0.00 56 1015.0
20260507010059 18 256 0.0 0.0 0.00 0.00 0.00 57 1015.1
20260507005555 18 292 0.0 0.0 0.00 0.00 0.00 57 1015.0
20260507005054 18 281 0.0 0.0 0.00 0.00 0.00 58 1015.0
20260507004554 18 270 0.0 0.0 0.00 0.00 0.00 57 1014.8
20260507004054 18 264 0.0 0.0 0.00 0.00 0.00 58 1014.8
20260507003554 18 319 0.0 0.0 0.00 0.00 0.00 58 1014.8
20260507003054 18 303 0.0 0.0 0.00 0.00 0.00 58 1014.7
20260507002553 19 256 0.0 0.0 0.00 0.00 0.00 57 1014.8
20260507002053 19 271 0.0 0.0 0.00 0.00 0.00 57 1014.6
20260507001601 19 309 0.0 0.0 0.00 0.00 0.00 57 1014.6
20260507001052 19 303 0.0 0.0 0.00 0.00 0.00 56 1014.6
20260507000553 20 292 0.0 0.0 0.00 0.00 0.00 55 1014.6
20260507000054 20 294 0.0 0.0 0.00 0.00 0.00 56 1014.5
20260506235555 20 223 0.0 0.0 0.00 0.00 0.00 55 1014.5
20260506235055 20 288 0.0 0.0 0.00 0.00 0.00 55 1014.5
20260506234553 20 289 0.0 0.0 0.00 0.00 0.00 55 1014.5
20260506234052 20 278 0.0 0.0 0.00 0.00 0.00 55 1014.4
20260506233551 20 331 0.0 0.0 0.00 0.00 0.00 55 1014.3
20260506233109 20 287 0.0 0.0 0.00 0.00 0.00 54 1014.4
20260506232551 20 284 0.0 0.0 0.00 0.00 0.00 55 1014.4
20260506232051 20 325 0.0 0.0 0.00 0.00 0.00 54 1014.2
20260506231551 20 286 0.0 0.0 0.00 0.00 0.00 54 1014.2
20260506231051 20 315 0.0 0.0 0.00 0.00 0.00 53 1014.2
20260506230550 20 257 0.0 0.0 0.00 0.00 0.00 52 1014.2
20260506230051 21 271 0.0 0.0 0.00 0.00 0.00 51 1014.2
20260506225650 21 306 0.0 0.0 0.00 0.00 0.00 51 1014.1
20260506225050 21 313 0.0 0.0 0.00 0.00 0.00 51 1014.2
20260506224550 21 267 0.0 0.0 0.00 0.00 0.00 52 1014.3
20260506224052 21 290 0.0 0.0 0.00 0.00 0.00 51 1014.3
20260506223550 21 282 0.0 0.0 0.00 0.00 0.00 51 1014.3
20260506223048 21 255 0.0 0.0 0.00 0.00 0.00 50 1014.5
20260506222548 21 279 0.0 0.0 0.00 0.00 0.00 51 1014.4
20260506222048 21 259 0.0 0.0 0.00 0.00 0.00 51 1014.6
20260506221547 21 300 0.0 0.0 0.00 0.00 0.00 52 1014.7
20260506221046 21 297 0.0 0.0 0.00 0.00 0.00 51 1014.7
20260506220546 21 252 0.0 0.0 0.00 0.00 0.00 54 1015.0
20260506220046 20 271 0.0 0.0 0.00 0.00 0.00 56 1015.1
20260506215549 20 292 0.0 0.0 0.00 0.00 0.00 55 1015.2
20260506215045 20 237 0.0 0.0 0.00 0.00 0.00 55 1015.2
20260506214546 20 240 0.0 0.0 0.00 0.00 0.00 55 1015.2
20260506214046 20 284 0.0 0.0 0.00 0.00 0.00 54 1015.4
20260506213544 20 278 0.0 0.0 0.00 0.00 0.00 53 1015.3
20260506213058 20 330 0.0 0.0 0.00 0.00 0.00 52 1015.3
20260506212544 20 288 0.0 0.0 0.00 0.00 0.00 52 1015.3
20260506212045 20 277 0.0 0.0 0.00 0.00 0.00 52 1015.2
20260506211544 20 291 0.0 0.0 0.00 0.00 0.00 53 1015.4
20260506211044 21 301 0.0 0.0 0.00 0.00 0.00 51 1015.4
20260506210544 21 269 0.0 0.0 0.00 0.00 0.00 50 1015.5
20260506210043 21 259 0.0 0.0 0.00 0.00 0.00 52 1015.5
20260506205544 21 269 0.0 0.0 0.00 0.00 0.00 55 1015.7
20260506205043 21 319 0.0 0.0 0.00 0.00 0.00 52 1015.6
20260506204548 21 232 0.0 0.0 0.00 0.00 0.00 53 1015.7
20260506204041 21 269 0.0 0.0 0.00 0.00 0.00 54 1015.8
20260506203540 21 327 0.0 0.0 0.00 0.00 0.00 54 1015.8
20260506203039 21 304 0.0 0.0 0.00 0.00 0.00 55 1016.0
20260506202541 20 269 0.0 0.0 0.00 0.00 0.00 56 1016.0
20260506202037 20 234 0.0 0.0 0.00 0.00 0.00 55 1016.0
20260506201537 20 248 0.0 0.0 0.00 0.00 0.00 55 1015.8
20260506201036 20 255 0.0 0.0 0.00 0.00 0.00 55 1015.9
20260506200535 20 258 0.0 0.0 0.00 0.00 0.00 56 1015.8
20260506200035 20 272 0.0 0.0 0.00 0.00 0.00 57 1015.7
20260506195534 20 298 0.0 0.0 0.00 0.00 0.00 57 1015.7
20260506195037 20 257 0.0 0.0 0.00 0.00 0.00 57 1015.4
20260506194537 20 291 0.0 0.0 0.00 0.00 0.00 56 1015.5
20260506194031 20 286 0.0 0.0 0.00 0.00 0.00 58 1015.4
20260506193530 20 283 0.0 0.0 0.00 0.00 0.00 58 1015.5
20260506193032 19 286 0.0 0.0 0.00 0.00 0.00 59 1015.2
20260506192531 19 269 0.0 0.0 0.00 0.00 0.00 60 1015.1
20260506192027 19 267 0.0 0.0 0.00 0.00 0.00 60 1015.3
20260506191526 18 303 0.0 0.0 0.00 0.00 0.00 60 1015.2
20260506191027 18 290 0.0 0.0 0.00 0.00 0.00 60 1015.2
20260506190524 18 281 0.0 0.0 0.00 0.00 0.00 60 1015.3
20260506190025 18 276 0.0 0.0 0.00 0.00 0.00 60 1015.2
20260506185525 18 298 0.0 0.0 0.00 0.00 0.00 60 1015.2
20260506185026 18 299 0.0 0.0 0.00 0.00 0.00 62 1015.2
20260506184525 18 264 0.0 0.0 0.00 0.00 0.00 61 1015.1
20260506184023 18 342 0.0 0.0 0.00 0.00 0.00 61 1015.4
20260506183523 18 300 0.0 0.0 0.00 0.00 0.00 61 1015.6
20260506183022 18 275 0.0 0.0 0.00 0.00 0.00 62 1015.6
20260506182521 18 300 0.0 0.0 0.00 0.00 0.00 63 1015.6
20260506182022 18 304 0.0 0.0 0.00 0.00 0.00 63 1015.7
20260506181519 18 290 0.0 0.0 0.00 0.00 0.00 64 1015.9
20260506181020 18 267 0.0 0.0 0.00 0.00 0.00 65 1016.0
20260506180519 18 294 0.0 0.0 0.00 0.00 0.00 64 1016.1
20260506180018 18 250 0.0 0.0 0.00 0.00 0.00 65 1016.1
20260506175517 18 309 0.0 0.0 0.00 0.00 0.00 64 1016.1
20260506175019 18 275 0.0 0.0 0.00 0.00 0.00 64 1016.0
20260506174516 17 287 0.0 0.0 0.00 0.00 0.00 64 1016.2
20260506174015 17 277 0.0 0.0 0.00 0.00 0.00 65 1016.1
20260506173515 17 288 0.0 0.0 0.00 0.00 0.00 64 1016.0
20260506173014 17 306 0.0 0.0 0.00 0.00 0.00 65 1015.9
20260506172514 17 277 0.0 0.0 0.00 0.00 0.00 65 1015.8
20260506172014 17 303 0.0 0.0 0.00 0.00 0.00 64 1015.5
20260506171513 17 266 0.0 0.0 0.00 0.00 0.00 65 1015.2
20260506171013 17 259 0.0 0.0 0.00 0.00 0.00 66 1015.0
20260506170511 17 259 0.0 0.0 0.00 0.00 0.00 66 1014.9
20260506170011 17 304 0.0 0.0 0.00 0.00 0.00 66 1014.9
20260506165513 17 296 0.0 0.0 0.00 0.00 0.00 67 1015.0
20260506165010 17 287 0.0 0.0 0.00 0.00 0.00 66 1015.0
20260506164509 17 252 0.0 0.0 0.00 0.00 0.00 67 1015.1
20260506164009 16 307 0.0 0.0 0.00 0.00 0.00 67 1015.2
20260506163507 16 279 0.0 0.0 0.00 0.00 0.00 67 1015.2
20260506163009 16 312 0.0 0.0 0.00 0.00 0.00 67 1015.4
20260506162508 16 300 0.0 0.0 0.00 0.00 0.00 67 1015.7
20260506162005 16 289 0.0 0.0 0.00 0.00 0.00 67 1015.4
20260506161506 16 242 0.0 0.0 0.00 0.00 0.00 67 1015.8
20260506161004 16 263 0.0 0.0 0.00 0.00 0.00 67 1015.9
20260506160507 16 292 0.0 0.0 0.00 0.00 0.00 67 1016.1
20260506160010 16 281 0.0 0.0 0.00 0.00 0.00 67 1016.2
20260506155503 16 254 0.0 0.0 0.00 0.00 0.00 67 1016.1
20260506155002 16 279 0.0 0.0 0.00 0.00 0.00 67 1016.1
20260506154503 16 258 0.0 0.0 0.00 0.00 0.00 67 1016.0
20260506154005 16 289 0.0 0.0 0.00 0.00 0.00 67 1015.8
20260506153502 16 237 0.0 0.0 0.00 0.00 0.00 67 1015.8
20260506153002 16 294 0.0 0.0 0.00 0.00 0.00 67 1015.9
20260506152600 16 223 0.0 0.0 0.00 0.00 0.00 67 1015.8
20260506152100 16 277 0.0 0.0 0.00 0.00 0.00 67 1015.7
20260506151601 16 302 0.0 0.0 0.00 0.00 0.00 67 1015.7
20260506151059 16 294 0.0 0.0 0.00 0.00 0.00 67 1015.6
20260506150559 16 304 0.0 0.0 0.00 0.00 0.00 67 1015.6
20260506145556 15 306 0.0 0.0 0.00 0.00 0.00 67 1015.9
20260506145056 15 261 0.0 0.0 0.00 0.00 0.00 67 1015.6
20260506144557 15 279 0.0 0.0 0.00 0.00 0.00 67 1015.7
20260506144056 15 309 0.0 0.0 0.00 0.00 0.00 67 1015.6
20260506143555 15 301 0.0 0.0 0.00 0.00 0.00 67 1015.7
20260506143105 15 308 0.0 0.0 0.00 0.00 0.00 67 1015.6
20260506142554 15 299 0.0 0.0 0.00 0.00 0.00 67 1015.6
20260506142052 15 259 0.0 0.0 0.00 0.00 0.00 67 1015.5
20260506141552 15 296 0.0 0.0 0.00 0.00 0.00 67 1015.4
20260506141055 15 255 0.0 0.0 0.00 0.00 0.00 67 1015.3
20260506140551 15 284 0.0 0.0 0.00 0.00 0.00 67 1015.2
20260506140054 15 308 0.0 0.0 0.00 0.00 0.00 67 1015.3
20260506135551 15 268 0.0 0.0 0.00 0.00 0.00 67 1015.3
20260506135049 15 306 0.0 0.0 0.00 0.00 0.00 67 1015.1
20260506134550 15 253 0.0 0.0 0.00 0.00 0.00 67 1015.1
20260506134049 15 236 0.0 0.0 0.00 0.00 0.00 67 1015.1
20260506133549 15 259 0.0 0.0 0.00 0.00 0.00 67 1015.0
20260506133049 15 244 0.0 0.0 0.00 0.00 0.00 67 1015.1
20260506132548 15 283 0.0 0.0 0.00 0.00 0.00 67 1015.0
20260506132048 15 279 0.0 0.0 0.00 0.00 0.00 67 1015.0
20260506131548 15 348 0.0 0.0 0.00 0.00 0.00 67 1014.8
20260506131047 15 261 0.0 0.0 0.00 0.00 0.00 67 1014.9
20260506130548 15 281 0.0 0.0 0.00 0.00 0.00 67 1014.8
20260506130047 15 290 0.0 0.0 0.00 0.00 0.00 67 1014.8
20260506125549 15 268 0.0 0.0 0.00 0.00 0.00 67 1014.8
20260506125050 15 238 0.0 0.0 0.00 0.00 0.00 67 1014.6
20260506124545 15 288 0.0 0.0 0.00 0.00 0.00 67 1014.6
20260506124045 15 272 0.0 0.0 0.00 0.00 0.00 67 1014.6
20260506123545 15 272 0.0 0.0 0.00 0.00 0.00 67 1014.5
20260506123044 15 281 0.0 0.0 0.00 0.00 0.00 67 1014.6
20260506122544 15 273 0.0 0.0 0.00 0.00 0.00 67 1014.6
20260506122044 15 250 0.0 0.0 0.00 0.00 0.00 67 1014.6
20260506121545 15 284 0.0 0.0 0.00 0.00 0.00 66 1014.5
20260506121044 15 260 0.0 0.0 0.00 0.00 0.00 67 1014.4
20260506120542 15 253 0.0 0.0 0.00 0.00 0.00 67 1014.5
20260506120045 15 252 0.0 0.0 0.00 0.00 0.00 67 1014.5
20260506115542 15 265 0.0 0.0 0.00 0.00 0.00 67 1014.4
20260506115042 15 271 0.0 0.0 0.00 0.00 0.00 67 1014.3
20260506114549 15 288 0.0 0.0 0.00 0.00 0.00 67 1014.3
20260506114044 15 293 0.0 0.0 0.00 0.00 0.00 67 1014.2
20260506113543 15 247 0.0 0.0 0.00 0.00 0.00 67 1014.2
20260506113041 15 297 0.0 0.0 0.00 0.00 0.00 67 1014.1
20260506112542 15 255 0.0 0.0 0.00 0.00 0.00 67 1014.2
20260506112038 15 223 0.0 0.0 0.00 0.00 0.00 67 1014.0
20260506111541 15 291 0.0 0.0 0.00 0.00 0.00 67 1014.1
20260506111038 15 279 0.0 0.0 0.00 0.00 0.00 67 1013.9